FW7989 Weather Reports


time (UTC)temp
F
wind
direction
speed
knots
gust
knots
rain 1hr
in
rain 24hr
in
rain mn
in
humidity
%
barometer
mb
20260903180559 67 294 9.6 18.2 0.00 0.00 0.00 88 1017.4
20260903180105 67 296 9.6 18.2 0.00 0.00 0.00 87 1017.3
20260903175558 67 289 9.6 18.2 0.00 0.00 0.00 87 1017.4
20260903175059 67 284 9.6 17.4 0.00 0.00 0.00 87 1017.4
20260903174608 67 294 10.4 18.2 0.00 0.00 0.00 86 1017.4
20260903174057 67 296 8.7 18.2 0.00 0.00 0.00 85 1017.4
20260903173559 68 301 8.7 14.8 0.00 0.00 0.00 85 1017.4
20260903173105 68 284 9.6 18.2 0.00 0.00 0.00 86 1017.4
20260903172559 68 301 10.4 18.2 0.00 0.00 0.00 85 1017.6
20260903172101 68 277 9.6 14.8 0.00 0.00 0.00 85 1017.5
20260903171603 68 288 9.6 18.2 0.00 0.00 0.00 85 1017.4
20260903171056 68 284 9.6 18.2 0.00 0.00 0.00 84 1017.3
20260903170556 69 335 10.4 15.6 0.00 0.00 0.00 84 1017.4
20260903170107 69 286 10.4 15.6 0.00 0.00 0.00 84 1017.3
20260903165559 70 289 9.6 13.9 0.00 0.00 0.00 83 1017.2
20260903165101 70 309 9.6 13.9 0.00 0.00 0.00 81 1017.4
20260903164606 70 283 7.0 13.0 0.00 0.00 0.00 81 1017.2
20260903164059 70 269 2.6 8.7 0.00 0.00 0.00 80 1017.1
20260903163601 71 319 3.5 8.7 0.00 0.00 0.00 80 1017.1
20260903163106 71 314 5.2 8.7 0.00 0.00 0.00 80 1017.2
20260903162604 71 309 5.2 9.6 0.00 0.00 0.00 80 1017.2
20260903162102 71 299 5.2 9.6 0.00 0.00 0.00 80 1017.3
20260903161559 71 316 4.3 10.4 0.00 0.00 0.00 80 1017.2
20260903161055 71 286 7.0 13.9 0.00 0.00 0.00 80 1017.4
20260903160559 71 297 7.0 13.9 0.00 0.00 0.00 79 1017.4
20260903160106 71 299 4.3 11.3 0.00 0.00 0.00 79 1017.5
20260903155558 71 263 4.3 11.3 0.00 0.00 0.00 79 1017.6
20260903155058 71 296 5.2 9.6 0.00 0.00 0.00 79 1017.6
20260903154607 72 313 5.2 9.6 0.00 0.00 0.00 79 1017.7
20260903154059 72 276 6.1 9.6 0.00 0.00 0.00 78 1017.6
20260903153558 72 317 4.3 10.4 0.00 0.00 0.00 78 1017.6
20260903153130 72 237 5.2 10.4 0.00 0.00 0.00 77 1017.7
20260903152556 72 308 6.1 10.4 0.00 0.00 0.00 78 1017.7
20260903152059 72 303 4.3 12.2 0.00 0.00 0.00 77 1017.9
20260903151616 72 286 5.2 12.2 0.00 0.00 0.00 76 1017.9
20260903151056 73 267 5.2 12.2 0.00 0.00 0.00 76 1018.0
20260903150559 73 278 6.1 14.8 0.00 0.00 0.00 77 1018.0
20260903150121 73 269 7.8 14.8 0.00 0.00 0.00 77 1018.1
20260903145555 73 289 7.8 14.8 0.00 0.03 0.00 76 1018.2
20260903145058 73 277 7.8 14.8 0.00 0.03 0.00 75 1018.2
20260903144611 73 294 7.8 17.4 0.00 0.03 0.00 74 1018.1
20260903144102 74 309 8.7 17.4 0.00 0.03 0.00 75 1018.1
20260903143601 74 264 11.3 17.4 0.00 0.03 0.00 73 1018.3
20260903143109 75 309 7.0 13.0 0.00 0.03 0.00 73 1018.3
20260903142555 75 303 7.8 14.8 0.00 0.03 0.00 72 1018.3
20260903142058 76 238 8.7 14.8 0.00 0.03 0.00 68 1018.2
20260903141604 76 288 7.8 15.6 0.00 0.03 0.00 68 1018.1
20260903141059 76 302 7.8 15.6 0.00 0.03 0.00 70 1018.1
20260903140559 76 166 7.0 14.8 0.00 0.03 0.00 68 1018.3
20260903140109 75 313 6.1 13.0 0.00 0.03 0.00 71 1018.1
20260903135559 76 271 5.2 11.3 0.00 0.03 0.00 71 1018.0
20260903135059 76 277 5.2 13.0 0.00 0.03 0.00 72 1018.1
20260903134606 75 221 6.1 13.0 0.00 0.03 0.00 73 1018.2
20260903134055 75 285 5.2 10.4 0.00 0.03 0.00 74 1018.1
20260903133555 75 302 5.2 13.0 0.00 0.03 0.00 75 1018.2
20260903133104 75 242 6.1 15.6 0.00 0.03 0.00 75 1018.2
20260903132558 75 315 5.2 15.6 0.00 0.03 0.00 76 1018.4
20260903132058 74 313 5.2 12.2 0.00 0.03 0.00 78 1018.3
20260903131605 74 294 6.1 12.2 0.00 0.03 0.00 77 1018.3
20260903131058 74 271 6.1 11.3 0.00 0.03 0.00 77 1018.3
20260903130559 75 253 5.2 11.3 0.00 0.03 0.00 77 1018.3
20260903125559 74 309 5.2 8.7 0.00 0.03 0.00 76 1018.5
20260903125059 74 265 5.2 7.8 0.00 0.03 0.00 76 1018.3
20260903124601 74 272 4.3 9.6 0.00 0.03 0.00 78 1018.5
20260903124055 73 246 4.3 9.6 0.00 0.03 0.00 78 1018.4
20260903123558 73 301 6.1 8.7 0.00 0.03 0.00 76 1018.4
20260903123107 73 351 3.5 11.3 0.00 0.03 0.00 79 1018.3
20260903122559 73 303 5.2 11.3 0.00 0.03 0.00 80 1018.4
20260903122059 73 302 6.1 10.4 0.00 0.03 0.00 77 1018.3
20260903121606 73 285 6.1 11.3 0.00 0.03 0.00 78 1018.3
20260903121059 73 304 6.1 11.3 0.00 0.03 0.00 79 1018.4
20260903120558 72 312 4.3 13.0 0.00 0.03 0.00 81 1018.4
20260903115558 72 269 8.7 13.9 0.00 0.03 0.00 81 1018.4
20260903115102 71 311 5.2 11.3 0.00 0.03 0.00 81 1018.4
20260903114605 72 273 7.0 11.3 0.00 0.03 0.00 79 1018.3
20260903114059 73 300 6.1 11.3 0.00 0.03 0.00 78 1018.4
20260903113558 73 290 6.1 12.2 0.00 0.03 0.00 77 1018.3
20260903113103 74 262 7.0 12.2 0.00 0.03 0.00 77 1018.3
20260903112558 73 289 8.7 12.2 0.00 0.03 0.00 78 1018.3
20260903112058 73 304 7.0 12.2 0.00 0.03 0.00 78 1018.4
20260903111608 72 302 6.1 12.2 0.00 0.03 0.00 79 1018.3
20260903111057 72 323 7.8 11.3 0.00 0.03 0.00 80 1018.4
20260903110556 71 281 7.0 12.2 0.00 0.03 0.00 83 1018.4
20260903110106 70 300 5.2 13.0 0.00 0.03 0.00 84 1018.5
20260903105618 70 306 7.0 13.0 0.00 0.03 0.00 83 1018.5
20260903105100 70 343 3.5 12.2 0.00 0.03 0.00 84 1018.4
20260903104630 70 292 4.3 12.2 0.00 0.03 0.00 82 1018.4
20260903104102 70 269 4.3 12.2 0.00 0.03 0.00 80 1018.3
20260903103559 71 301 5.2 12.2 0.00 0.03 0.00 80 1018.1
20260903103108 71 279 6.1 10.4 0.00 0.03 0.00 80 1018.1
20260903102559 71 260 4.3 12.2 0.00 0.03 0.00 79 1018.1
20260903102057 71 290 5.2 12.2 0.00 0.03 0.00 79 1018.1
20260903101607 71 311 7.8 12.2 0.00 0.03 0.00 79 1018.2
20260903101058 70 360 4.3 12.2 0.00 0.03 0.00 80 1018.3
20260903100558 70 360 4.3 11.3 0.00 0.03 0.00 82 1018.4
20260903100106 70 297 5.2 11.3 0.00 0.03 0.00 83 1018.5
20260903095559 70 298 6.1 11.3 0.00 0.03 0.00 82 1018.5
20260903095103 70 289 4.3 10.4 0.00 0.03 0.00 82 1018.7
20260903094616 69 267 4.3 13.9 0.00 0.03 0.00 83 1018.6
20260903094059 69 302 6.1 13.9 0.00 0.03 0.00 82 1018.6
20260903093602 69 295 7.0 13.9 0.00 0.03 0.00 81 1018.6
20260903093109 70 284 7.8 13.9 0.00 0.03 0.00 81 1018.5
20260903092600 69 278 7.0 13.0 0.00 0.03 0.00 82 1018.5
20260903092058 69 273 7.0 13.0 0.00 0.03 0.00 81 1018.4
20260903091609 69 273 7.0 12.2 0.00 0.03 0.00 81 1018.6
20260903091100 69 278 4.3 13.0 0.00 0.03 0.00 82 1018.6
20260903090602 68 360 6.1 13.0 0.00 0.03 0.00 81 1018.5
20260903090108 68 284 6.1 13.0 0.00 0.03 0.00 82 1018.7
20260903085558 68 239 6.1 14.8 0.00 0.06 0.00 82 1018.6
20260903085059 68 360 7.0 14.8 0.00 0.06 0.00 82 1018.6
20260903084605 68 255 7.8 14.8 0.00 0.06 0.00 82 1018.5
20260903084059 68 288 7.0 13.9 0.00 0.06 0.00 83 1018.6
20260903083602 68 295 7.8 13.9 0.00 0.06 0.00 83 1018.5
20260903083108 68 257 7.0 13.9 0.00 0.06 0.00 83 1018.5
20260903082559 69 294 6.1 14.8 0.00 0.06 0.00 83 1018.5
20260903082102 69 309 5.2 14.8 0.00 0.06 0.00 83 1018.5
20260903081630 69 281 7.0 14.8 0.00 0.06 0.00 82 1018.4
20260903081100 69 293 7.0 12.2 0.00 0.06 0.00 83 1018.5
20260903080559 69 307 7.0 12.2 0.00 0.06 0.00 83 1018.4
20260903080111 69 223 5.2 11.3 0.00 0.06 0.00 84 1018.5
20260903075600 68 290 6.1 10.4 0.00 0.07 0.00 83 1018.3
20260903075059 69 302 3.5 9.6 0.00 0.07 0.00 84 1018.2
20260903074617 69 360 3.5 8.7 0.00 0.07 0.00 84 1018.3
20260903074100 69 267 1.7 7.8 0.00 0.07 0.00 83 1018.2
20260903073559 69 267 3.5 7.8 0.00 0.07 0.00 83 1018.2
20260903073124 68 224 2.6 7.0 0.00 0.07 0.00 83 1018.0
20260903072559 68 261 1.7 7.0 0.00 0.07 0.00 83 1018.0
20260903072059 68 238 2.6 6.1 0.00 0.07 0.00 84 1017.9
20260903071608 68 234 2.6 5.2 0.00 0.07 0.00 84 1017.8
20260903071058 68 223 2.6 5.2 0.00 0.07 0.00 84 1017.8
20260903070602 67 234 1.7 5.2 0.00 0.07 0.00 84 1017.6
20260903070126 67 214 1.7 3.5 0.00 0.07 0.00 85 1017.6
20260903065603 67 218 0.9 2.6 0.00 0.07 0.00 86 1017.6
20260903065058 67 228 0.0 2.6 0.00 0.07 0.00 86 1017.7
20260903064624 67 0 0.0 2.6 0.00 0.07 0.00 85 1017.5
20260903064059 67 0 0.0 2.6 0.00 0.07 0.00 86 1017.6
20260903063559 67 0 0.0 4.3 0.00 0.07 0.00 86 1017.5
20260903063109 67 246 1.7 7.8 0.00 0.07 0.00 86 1017.4
20260903062602 67 271 1.7 7.8 0.00 0.07 0.00 86 1017.4
20260903062102 67 360 2.6 8.7 0.00 0.07 0.00 86 1017.5
20260903061608 67 273 3.5 9.6 0.00 0.07 0.00 86 1017.4
20260903061058 67 294 4.3 9.6 0.00 0.07 0.00 86 1017.3
20260903060559 67 294 3.5 9.6 0.00 0.07 0.00 86 1017.4
20260903060111 67 275 4.3 9.6 0.00 0.07 0.00 85 1017.5
20260903055603 67 284 5.2 13.0 0.00 0.07 0.00 85 1017.5
20260903055059 67 271 5.2 13.0 0.00 0.07 0.00 84 1017.6
20260903054616 67 259 5.2 12.2 0.00 0.07 0.00 84 1017.6
20260903054059 67 311 6.1 12.2 0.00 0.07 0.00 84 1017.7
20260903053601 67 296 5.2 13.9 0.00 0.07 0.00 83 1017.5
20260903053103 67 267 6.1 13.9 0.00 0.07 0.00 84 1017.6
20260903052559 67 279 6.1 13.9 0.00 0.07 0.00 84 1017.7
20260903052101 67 271 6.1 13.0 0.00 0.07 0.00 85 1017.6
20260903051603 67 257 7.0 13.0 0.00 0.07 0.00 85 1017.4
20260903051057 67 294 5.2 11.3 0.00 0.07 0.00 85 1017.5
20260903050557 67 290 5.2 10.4 0.00 0.07 0.00 85 1017.5
20260903050110 67 312 4.3 9.6 0.00 0.07 0.00 85 1017.3
20260903045559 67 277 3.5 9.6 0.00 0.07 0.00 86 1017.3
20260903045100 67 286 4.3 7.8 0.00 0.07 0.00 86 1017.3
20260903044603 67 289 3.5 7.8 0.00 0.07 0.00 88 1017.3
20260903044104 67 269 3.5 8.7 0.00 0.07 0.00 88 1017.0
20260903043601 67 320 4.3 8.7 0.00 0.07 0.00 89 1017.1
20260903043104 67 287 4.3 8.7 0.00 0.07 0.00 89 1017.1
20260903042601 67 271 3.5 11.3 0.00 0.07 0.00 89 1016.9
20260903042100 67 285 5.2 12.2 0.00 0.07 0.00 89 1017.0
20260903041607 67 296 7.8 12.2 0.00 0.07 0.00 89 1017.1
20260903041059 67 271 5.2 9.6 0.00 0.07 0.00 88 1017.0
20260903040559 67 263 3.5 9.6 0.00 0.07 0.00 88 1017.1
20260903040107 67 253 4.3 11.3 0.00 0.07 0.00 88 1016.9
20260903035559 67 316 4.3 11.3 0.00 0.07 0.00 88 1017.0
20260903035059 67 238 4.3 12.2 0.00 0.07 0.00 88 1016.8
20260903034604 67 275 4.3 12.2 0.00 0.07 0.00 88 1016.8
20260903034100 67 240 5.2 10.4 0.00 0.07 0.00 87 1016.8
20260903033559 67 292 3.5 10.4 0.00 0.07 0.00 87 1016.9
20260903033105 67 296 6.1 13.0 0.00 0.07 0.00 87 1016.9
20260903032600 67 296 5.2 13.0 0.00 0.07 0.00 87 1016.9
20260903032058 68 273 6.1 13.0 0.00 0.07 0.00 86 1016.9
20260903031615 67 253 4.3 11.3 0.00 0.07 0.00 85 1016.8
20260903031101 67 263 4.3 10.4 0.00 0.07 0.00 85 1016.8
20260903030559 67 237 6.1 10.4 0.00 0.07 0.00 85 1016.8
20260903030135 67 228 3.5 9.6 0.00 0.07 0.00 86 1016.7
20260903025600 66 244 5.2 9.6 0.00 0.07 0.00 86 1016.8
20260903025059 66 233 2.6 4.3 0.00 0.07 0.00 87 1016.8
20260903024603 66 196 0.9 4.3 0.00 0.07 0.00 87 1016.7
20260903024059 66 192 1.7 4.3 0.00 0.07 0.00 86 1016.7
20260903023602 66 215 2.6 6.1 0.00 0.07 0.00 86 1016.8
20260903023113 66 213 2.6 6.1 0.00 0.07 0.00 86 1016.8
20260903022559 67 200 2.6 6.1 0.00 0.07 0.00 86 1016.7
20260903022058 67 200 2.6 5.2 0.00 0.07 0.00 86 1016.6
20260903021605 67 225 2.6 7.8 0.00 0.07 0.00 86 1016.7
20260903021100 67 194 2.6 7.8 0.00 0.07 0.00 86 1016.8
20260903020600 67 215 2.6 7.0 0.00 0.07 0.00 86 1016.8
20260903020108 67 192 2.6 7.0 0.00 0.07 0.00 86 1016.7
20260903015559 67 196 2.6 7.0 0.00 0.07 0.00 86 1017.0
20260903015058 67 201 3.5 7.0 0.00 0.07 0.00 86 1016.9
20260903014614 67 204 3.5 7.0 0.00 0.07 0.00 86 1017.0
20260903014101 67 213 3.5 7.0 0.00 0.07 0.00 86 1017.0
20260903013559 67 193 2.6 7.0 0.00 0.07 0.00 86 1016.8
20260903013104 67 206 4.3 7.0 0.00 0.07 0.00 86 1017.0
20260903012558 67 221 3.5 6.1 0.00 0.07 0.00 86 1017.0
20260903012059 67 192 3.5 6.1 0.00 0.07 0.00 85 1016.9
20260903011607 67 203 2.6 5.2 0.00 0.07 0.00 85 1016.8
20260903011059 67 201 1.7 6.1 0.00 0.07 0.00 85 1017.0
20260903010558 67 213 1.7 6.1 0.00 0.07 0.00 85 1016.8
20260903010107 67 205 3.5 9.6 0.00 0.07 0.00 85 1016.7
20260903005559 67 211 3.5 10.4 0.00 0.07 0.00 85 1016.8
20260903005100 67 222 4.3 10.4 0.00 0.07 0.00 85 1017.0
20260903004606 67 205 2.6 6.1 0.00 0.07 0.00 85 1016.8
20260903004059 67 204 1.7 5.2 0.00 0.07 0.00 85 1017.1
20260903003559 67 210 2.6 5.2 0.00 0.07 0.00 85 1017.1
20260903003109 67 208 1.7 5.2 0.00 0.07 0.00 85 1017.0
20260903002558 67 222 2.6 7.0 0.00 0.07 0.00 85 1017.1
20260903002100 67 198 2.6 8.7 0.00 0.07 0.00 84 1017.3
20260903001611 67 212 3.5 8.7 0.00 0.07 0.00 84 1017.2
20260903001103 67 227 3.5 7.8 0.00 0.07 0.00 84 1017.1
20260903000559 67 196 4.3 7.8 0.00 0.07 0.00 84 1017.1
20260903000110 67 192 2.6 6.1 0.00 0.07 0.00 84 1017.0
20260902235559 67 175 2.6 7.0 0.00 0.07 0.00 84 1017.1
20260902235059 67 194 3.5 7.0 0.00 0.07 0.00 84 1017.1
20260902234602 67 188 4.3 7.8 0.00 0.07 0.00 84 1017.3
20260902234059 67 215 3.5 8.7 0.00 0.07 0.00 84 1017.5
20260902233559 67 192 3.5 9.6 0.00 0.07 0.00 84 1017.4
20260902233106 67 199 4.3 9.6 0.00 0.07 0.00 84 1017.6
20260902232558 67 187 3.5 8.7 0.00 0.07 0.00 84 1017.5
20260902232058 67 198 3.5 8.7 0.00 0.07 0.00 84 1017.4
20260902231603 67 199 3.5 7.8 0.00 0.07 0.00 84 1017.5
20260902231059 67 206 4.3 7.8 0.00 0.07 0.00 84 1017.5
20260902230559 67 210 5.2 7.8 0.00 0.07 0.00 84 1017.5
20260902230108 67 220 3.5 7.8 0.00 0.07 0.00 84 1017.6
20260902225559 67 228 3.5 8.7 0.00 0.07 0.07 84 1017.5
20260902225102 67 223 4.3 8.7 0.00 0.07 0.07 83 1017.5
20260902224607 67 192 4.3 8.7 0.00 0.07 0.07 83 1017.6
20260902224059 67 196 5.2 8.7 0.00 0.07 0.07 83 1017.6
20260902223559 67 207 4.3 8.7 0.00 0.07 0.07 83 1017.5
20260902223102 67 213 3.5 7.0 0.00 0.07 0.07 83 1017.5
20260902222558 67 223 3.5 7.0 0.00 0.07 0.07 83 1017.6
20260902222059 67 195 3.5 8.7 0.00 0.07 0.07 83 1017.6
20260902221623 67 223 4.3 9.6 0.00 0.07 0.07 83 1017.7
20260902221059 67 205 3.5 9.6 0.00 0.07 0.07 83 1017.5
20260902220559 67 214 3.5 9.6 0.00 0.07 0.07 83 1017.4
20260902220110 67 235 4.3 9.6 0.00 0.07 0.07 83 1017.6
20260902215600 67 205 4.3 9.6 0.00 0.07 0.07 83 1017.5
20260902215058 67 229 3.5 9.6 0.00 0.07 0.07 83 1017.5
20260902214607 67 252 4.3 7.8 0.00 0.07 0.07 83 1017.6
20260902214059 67 242 3.5 12.2 0.00 0.07 0.07 83 1017.5
20260902213558 67 229 5.2 12.2 0.00 0.07 0.07 83 1017.3
20260902213104 67 213 3.5 7.8 0.00 0.07 0.07 83 1017.5
20260902212558 67 215 3.5 7.8 0.00 0.07 0.07 83 1017.5
20260902212059 67 229 1.7 6.1 0.00 0.07 0.07 83 1017.4
20260902211603 67 223 2.6 6.1 0.00 0.07 0.07 83 1017.5
20260902211058 67 228 3.5 7.0 0.00 0.07 0.07 83 1017.5
20260902210558 67 219 1.7 7.0 0.00 0.07 0.07 83 1017.5
20260902210103 67 233 3.5 7.0 0.00 0.07 0.07 83 1017.5
20260902205559 67 239 3.5 9.6 0.00 0.07 0.07 83 1017.3
20260902205059 67 229 5.2 9.6 0.00 0.07 0.07 82 1017.3
20260902204615 67 243 5.2 9.6 0.00 0.07 0.07 82 1017.4
20260902204059 67 212 4.3 8.7 0.00 0.07 0.07 82 1017.3
20260902203558 67 225 3.5 10.4 0.00 0.07 0.07 82 1017.3
20260902203103 67 229 5.2 10.4 0.00 0.07 0.07 82 1017.2
20260902202602 67 207 5.2 8.7 0.00 0.07 0.07 82 1017.3
20260902202059 68 223 2.6 8.7 0.00 0.07 0.07 82 1017.3
20260902201601 68 224 3.5 8.7 0.00 0.07 0.07 82 1017.4
20260902201059 68 232 3.5 9.6 0.00 0.07 0.07 82 1017.4
20260902200558 68 263 4.3 9.6 0.00 0.07 0.07 82 1017.5
20260902200111 68 234 4.3 12.2 0.00 0.07 0.07 82 1017.5
20260902195603 68 238 4.3 12.2 0.00 0.07 0.07 82 1017.3
20260902195100 68 225 4.3 8.7 0.00 0.07 0.07 82 1017.5
20260902194625 67 251 4.3 9.6 0.00 0.07 0.07 82 1017.5
20260902194059 67 279 3.5 12.2 0.00 0.07 0.07 82 1017.3
20260902193601 67 243 4.3 13.9 0.00 0.07 0.07 82 1017.1
20260902193103 68 250 7.0 13.9 0.00 0.07 0.07 82 1016.9
20260902192558 67 225 4.3 10.4 0.00 0.07 0.07 82 1016.8
20260902192059 68 238 3.5 10.4 0.00 0.07 0.07 82 1017.0
20260902191608 68 215 5.2 10.4 0.00 0.07 0.07 81 1016.9
20260902191058 68 248 5.2 14.8 0.00 0.07 0.07 82 1016.9
20260902190601 68 218 7.0 14.8 0.00 0.07 0.07 82 1016.9
20260902190104 68 286 4.3 12.2 0.00 0.07 0.07 82 1016.8
20260902185558 68 244 5.2 12.2 0.00 0.07 0.07 83 1016.9
20260902185103 68 231 4.3 11.3 0.00 0.07 0.07 82 1016.9
20260902184608 68 227 3.5 12.2 0.00 0.07 0.07 81 1016.8
20260902184058 68 255 5.2 12.2 0.00 0.07 0.07 81 1016.9
20260902183558 69 251 6.1 12.2 0.00 0.07 0.07 80 1016.8
20260902183140 69 225 6.1 12.2 0.00 0.07 0.07 81 1016.9
20260902182601 69 228 5.2 12.2 0.00 0.07 0.07 81 1016.8
20260902182059 69 261 3.5 12.2 0.00 0.07 0.07 82 1016.8
20260902181614 69 249 4.3 9.6 0.00 0.07 0.07 82 1016.8
20260902181058 69 261 2.6 7.8 0.00 0.07 0.07 84 1016.9